TimeCDT,TemperatureF,Dew PointF,Humidity,Sea Level PressureIn,VisibilityMPH,Wind Direction,Wind SpeedMPH,Gust SpeedMPH,PrecipitationIn,Events,Conditions,WindDirDegrees,DateUTC
12:52 AM,51.1,48.0,89,30.01,7.0,SSW,6.9,-,N/A,,Clear,210,2013-04-28 05:52:00
1:52 AM,48.9,46.0,90,29.99,7.0,SSW,3.5,-,N/A,,Clear,210,2013-04-28 06:52:00
2:52 AM,45.0,44.1,97,29.98,4.0,Calm,Calm,-,N/A,,Clear,0,2013-04-28 07:52:00
3:07 AM,44.6,44.6,100,29.97,1.5,Calm,Calm,-,N/A,,Clear,0,2013-04-28 08:07:00
3:34 AM,44.6,42.8,93,29.97,0.8,Calm,Calm,-,N/A,,Clear,0,2013-04-28 08:34:00
3:38 AM,41.0,41.0,100,29.97,1.0,Calm,Calm,-,N/A,,Mist,0,2013-04-28 08:38:00
3:52 AM,42.1,41.0,96,29.96,1.2,Calm,Calm,-,N/A,,Partly Cloudy,0,2013-04-28 08:52:00
3:56 AM,39.2,39.2,100,29.96,0.8,Calm,Calm,-,N/A,,Mist,0,2013-04-28 08:56:00
4:03 AM,42.8,41.0,93,29.96,0.5,WSW,3.5,-,N/A,Fog,Fog,240,2013-04-28 09:03:00
4:08 AM,42.8,42.8,100,29.97,1.2,SW,3.5,-,N/A,,Partly Cloudy,220,2013-04-28 09:08:00
4:27 AM,44.6,42.8,93,29.97,3.0,SW,4.6,-,N/A,,Clear,220,2013-04-28 09:27:00
4:40 AM,42.8,42.8,100,29.97,2.0,SW,3.5,-,N/A,,Clear,220,2013-04-28 09:40:00
4:52 AM,44.1,43.0,96,29.97,1.8,Calm,Calm,-,N/A,,Clear,0,2013-04-28 09:52:00
5:01 AM,42.8,42.8,100,29.96,0.5,Calm,Calm,-,N/A,Fog,Fog,0,2013-04-28 10:01:00
5:09 AM,44.6,42.8,93,29.97,0.2,Calm,Calm,-,N/A,Fog,Fog,0,2013-04-28 10:09:00
5:16 AM,41.0,41.0,100,29.96,0.2,Calm,Calm,-,N/A,Fog,Fog,0,2013-04-28 10:16:00
5:44 AM,42.8,41.0,93,29.97,1.0,Calm,Calm,-,N/A,,Mist,0,2013-04-28 10:44:00
5:52 AM,41.0,39.9,96,29.97,1.0,Calm,Calm,-,N/A,,Mist,0,2013-04-28 10:52:00
6:00 AM,41.0,39.2,93,29.97,1.8,Calm,Calm,-,N/A,,Partly Cloudy,0,2013-04-28 11:00:00
6:07 AM,41.0,41.0,100,29.96,0.8,Calm,Calm,-,N/A,,Mist,0,2013-04-28 11:07:00
6:21 AM,39.2,39.2,100,29.96,0.2,Calm,Calm,-,N/A,Fog,Fog,0,2013-04-28 11:21:00
6:27 AM,39.2,39.2,100,29.96,1.0,Calm,Calm,-,N/A,,Mist,0,2013-04-28 11:27:00
6:35 AM,39.2,37.4,93,29.97,0.2,Calm,Calm,-,N/A,Fog,Fog,0,2013-04-28 11:35:00
6:43 AM,39.2,39.2,100,29.97,0.2,Calm,Calm,-,N/A,Fog,Fog,0,2013-04-28 11:43:00
6:52 AM,41.0,39.9,96,29.97,0.2,Calm,Calm,-,N/A,Fog,Fog,0,2013-04-28 11:52:00
7:21 AM,42.8,42.8,100,29.96,1.0,Calm,Calm,-,N/A,,Mist,0,2013-04-28 12:21:00
7:27 AM,42.8,42.8,100,29.96,0.8,Calm,Calm,-,N/A,,Mist,0,2013-04-28 12:27:00
7:35 AM,44.6,44.6,100,29.96,1.2,Calm,Calm,-,N/A,,Partly Cloudy,0,2013-04-28 12:35:00
7:39 AM,46.4,44.6,93,29.96,3.0,South,3.5,-,N/A,,Clear,180,2013-04-28 12:39:00
7:52 AM,48.9,48.0,97,29.96,5.0,SSW,4.6,-,N/A,,Clear,200,2013-04-28 12:52:00
8:52 AM,55.0,51.1,86,29.96,9.0,SSW,10.4,-,N/A,,Clear,210,2013-04-28 13:52:00
9:52 AM,61.0,53.1,75,29.94,10.0,SSW,12.7,18.4,N/A,,Clear,210,2013-04-28 14:52:00
10:52 AM,66.0,54.0,65,29.91,10.0,SSW,12.7,-,N/A,,Clear,200,2013-04-28 15:52:00
11:52 AM,70.0,54.0,57,29.89,10.0,SSW,13.8,-,N/A,,Clear,200,2013-04-28 16:52:00
12:52 PM,73.9,52.0,46,29.86,10.0,SSW,15.0,-,N/A,,Clear,200,2013-04-28 17:52:00
1:52 PM,75.9,53.1,45,29.83,10.0,SSW,15.0,-,N/A,,Clear,210,2013-04-28 18:52:00
2:52 PM,78.1,55.9,46,29.81,10.0,SW,16.1,23.0,N/A,,Clear,220,2013-04-28 19:52:00
3:52 PM,79.0,55.9,45,29.78,10.0,South,11.5,23.0,N/A,,Clear,190,2013-04-28 20:52:00
4:52 PM,80.1,54.0,40,29.75,10.0,South,16.1,24.2,N/A,,Clear,180,2013-04-28 21:52:00
5:52 PM,78.1,55.0,45,29.74,10.0,SSW,11.5,-,N/A,,Clear,200,2013-04-28 22:52:00
6:52 PM,78.1,55.0,45,29.73,10.0,SSW,15.0,19.6,N/A,,Clear,200,2013-04-28 23:52:00
7:52 PM,73.9,55.9,53,29.72,10.0,South,6.9,-,N/A,,Clear,190,2013-04-29 00:52:00
8:52 PM,66.0,55.0,68,29.73,10.0,Calm,Calm,-,N/A,,Clear,0,2013-04-29 01:52:00
9:52 PM,70.0,55.0,59,29.73,10.0,South,6.9,-,N/A,,Clear,190,2013-04-29 02:52:00
10:52 PM,68.0,53.1,59,29.73,10.0,SSW,8.1,-,N/A,,Clear,200,2013-04-29 03:52:00
11:52 PM,63.0,53.1,70,29.73,10.0,SSE,3.5,-,N/A,,Clear,160,2013-04-29 04:52:00